sat.trackr.live / text

‹ back to catalog

STARLINK-11355 [DTC]

NORAD 62415 · 2024-249G

PAYLOAD ACTIVE UNKNOWN

§ Identity

Operator
Country
US
Launch date
2024-12-23
Launch site
AFETR
Launch vehicle
Mass (kg)
RCS (m²)

Purposes: comms

External: N2YO · Heavens-Above · Gunter

§ Orbital elements

Epoch: 2026-09-21T21:52:44.781888Z

Period
91.67 min
Inclination
42.9995°
Eccentricity
0.0001719
Mean motion
15.70868708 rev/d
Perigee alt
355.3 km
Apogee alt
357.6 km
Semi-major
6,734.6 km
B*
1.0042e-3
RAAN
64.6709°
Arg perigee
272.8399°
Mean anomaly
87.2272°
Rev number
10,034

§ Raw data

STARLINK-11355 [DTC]1 62415U 24249G   26264.91162942  .00130602  00000+0  10042-2 0  99932 62415  42.9995  64.6709 0001719 272.8399  87.2272 15.70868708100344

JSON: /api/v1/satellites/62415 · /tle

For live sub-satellite position, see the globe view (requires WebGL).

§ Visibility from observer

Set your observer location to see the next 7 days of passes ≥ 10°. The values pass through the URL so the page stays shareable.

No JS? Fill the form by hand. The geolocation button needs JavaScript.